Location: Andrest
(43.3200°N, 0.0641°E)
Time: 15:00:04
(UTC+00:00)

SL-08 R/B - Pass Details

Date: 01 December 2020
Orbit: 950 x 1018 km, 82.9° (Epoch: 25 January)

Event Time Altitude Azimuth Distance (km) Brightness Sun altitude
Rises 18:04:14 0° 351° (N) 3,648 7.5 -17.5°
Reaches altitude 10° 18:06:44 10° 352° (N) 2,693 6.8 -18.0°
Maximum altitude 18:12:54 88° 265° (W) 958 4.4 -19.1°
Drops below altitude 10° 18:19:00 10° 175° (S) 2,669 6.9 -20.1°
Sets 18:21:28 0° 175° (S) 3,613 7.6 -20.6°
